<?xml version="1.0" encoding="UTF-8" standalone="no" ?>
<gpx xmlns="http://www.topografix.com/GPX/1/1" xmlns:xsi="http://www.w3.org/2001/XMLSchema-instance" xsi:schemaLocation="http://www.topografix.com/GPX/1/1 http://www.topografix.com/GPX/1/1/gpx.xsd" version="1.1" creator="VisuGPX - https://www.visugpx.com">
  <metadata>
    <name>Ecrins 2021</name>
  </metadata>
  <wpt lat="44.8396" lon="6.47901">
    <ele>1191.4</ele>
    <name><![CDATA[Vallouise]]></name>
  </wpt>
  <wpt lat="44.83903" lon="6.47524">
    <ele>1196.1</ele>
    <name><![CDATA[Pont des Fontaines]]></name>
  </wpt>
  <wpt lat="44.83931" lon="6.45488">
    <ele>1245.7</ele>
    <name><![CDATA[Pont des Places]]></name>
  </wpt>
  <wpt lat="44.83632" lon="6.44255">
    <ele>1309.8</ele>
    <name><![CDATA[Eboulement]]></name>
  </wpt>
  <wpt lat="44.83869" lon="6.44564">
    <ele>1289.8</ele>
    <name><![CDATA[Les Grésourières]]></name>
  </wpt>
  <wpt lat="44.83597" lon="6.43037">
    <ele>1466.9</ele>
    <name><![CDATA[Béassac]]></name>
  </wpt>
  <wpt lat="44.83117" lon="6.40174">
    <ele>1622.1</ele>
    <name><![CDATA[Entre les Aygues]]></name>
  </wpt>
  <wpt lat="44.83049" lon="6.40124">
    <ele>1609.1</ele>
    <name><![CDATA[Passerelle sur le torrent des Bans]]></name>
  </wpt>
  <wpt lat="44.81358" lon="6.38864">
    <ele>1836.5</ele>
    <name><![CDATA[Panneau d'entrée dans le parc des Ecrins]]></name>
  </wpt>
  <wpt lat="44.80661" lon="6.37616">
    <ele>1939.8</ele>
    <name><![CDATA[Passerelle sur le ruisseau du Ravin du Blanc]]></name>
  </wpt>
  <wpt lat="44.8009" lon="6.36589">
    <ele>2016.2</ele>
    <name><![CDATA[Passerelle sur le ruisseau de Chanteloube]]></name>
  </wpt>
  <wpt lat="44.79287" lon="6.36504">
    <ele>2131</ele>
    <name><![CDATA[1er ressaut]]></name>
  </wpt>
  <wpt lat="44.79042" lon="6.36483">
    <ele>2165</ele>
    <name><![CDATA[2ème ressaut]]></name>
  </wpt>
  <wpt lat="44.78733" lon="6.36223">
    <ele>2279.1</ele>
    <name><![CDATA[Champ Rond]]></name>
  </wpt>
  <wpt lat="44.78227" lon="6.35819">
    <ele>2498.2</ele>
    <name><![CDATA[Torrent de la Saume]]></name>
  </wpt>
  <wpt lat="44.76133" lon="6.34075">
    <ele>2074.9</ele>
    <name><![CDATA[Cabanes de Rougnoux]]></name>
  </wpt>
  <wpt lat="44.7633" lon="6.33688">
    <ele>1969.9</ele>
    <name><![CDATA[Passerelle sur le torrent de Rougnoux]]></name>
  </wpt>
  <wpt lat="44.7672" lon="6.32888">
    <ele>1831.2</ele>
    <name><![CDATA[Bivouac du refuge du Pré de la Chaumette]]></name>
  </wpt>
  <wpt lat="44.7729" lon="6.31142">
    <ele>2512.9</ele>
    <name><![CDATA[Sous le Puy de la Chaumette]]></name>
  </wpt>
  <wpt lat="44.81151" lon="6.29603">
    <ele>1704.7</ele>
    <name><![CDATA[Passerelle sur le torrent de Vallonpierre]]></name>
  </wpt>
  <wpt lat="44.81485" lon="6.29576">
    <ele>1660.5</ele>
    <name><![CDATA[Torrent de Vallonpierre]]></name>
  </wpt>
  <wpt lat="44.82482" lon="6.29325">
    <ele>1569.6</ele>
    <name><![CDATA[Passerelle sur la Séveraisse]]></name>
  </wpt>
  <wpt lat="44.82779" lon="6.29194">
    <ele>1545.2</ele>
    <name><![CDATA[Passerelle sur le Torrent de Pis Baumette]]></name>
  </wpt>
  <wpt lat="44.83173" lon="6.28114">
    <ele>1439</ele>
    <name><![CDATA[Passerelle sur le Torrent du Gioberney]]></name>
  </wpt>
  <wpt lat="44.8266" lon="6.26079">
    <ele>1402.8</ele>
    <name><![CDATA[Rif du Sap]]></name>
  </wpt>
  <wpt lat="44.82438" lon="6.23313">
    <ele>1174.1</ele>
    <name><![CDATA[Pont du Hameau du Bourg]]></name>
  </wpt>
  <wpt lat="44.81982" lon="6.21913">
    <ele>1151.2</ele>
    <name><![CDATA[Passerelle du Casset]]></name>
  </wpt>
  <trk>
    <name><![CDATA[E3 La Grave - Le Monêtier]]></name>
    <trkseg>
      <trkpt lat="45.04546" lon="6.30685">
        <ele>1476</ele>
        <time>2020-10-27T09:15:53+01:00</time>
      </trkpt>
      <trkpt lat="45.04531" lon="6.30708">
        <ele>1470</ele>
        <time>2020-10-27T09:15:58+01:00</time>
      </trkpt>
      <trkpt lat="45.04561" lon="6.3077">
        <ele>1463</ele>
        <time>2020-10-27T09:16:03+01:00</time>
      </trkpt>
      <trkpt lat="45.04508" lon="6.30747">
        <ele>1454</ele>
        <time>2020-10-27T09:16:08+01:00</time>
      </trkpt>
      <trkpt lat="45.04446" lon="6.30667">
        <ele>1452</ele>
        <time>2020-10-27T09:16:13+01:00</time>
      </trkpt>
      <trkpt lat="45.04411" lon="6.30732">
        <ele>1439</ele>
        <time>2020-10-27T09:16:18+01:00</time>
      </trkpt>
      <trkpt lat="45.04414" lon="6.30828">
        <ele>1445</ele>
        <time>2020-10-27T09:16:23+01:00</time>
      </trkpt>
      <trkpt lat="45.0447" lon="6.30985">
        <ele>1443</ele>
        <time>2020-10-27T09:16:28+01:00</time>
      </trkpt>
      <trkpt lat="45.0447" lon="6.31107">
        <ele>1445</ele>
        <time>2020-10-27T09:16:33+01:00</time>
      </trkpt>
      <trkpt lat="45.0444" lon="6.31213">
        <ele>1450</ele>
        <time>2020-10-27T09:16:38+01:00</time>
      </trkpt>
      <trkpt lat="45.04396" lon="6.31303">
        <ele>1463</ele>
        <time>2020-10-27T09:16:43+01:00</time>
      </trkpt>
      <trkpt lat="45.04404" lon="6.31363">
        <ele>1467</ele>
        <time>2020-10-27T09:16:48+01:00</time>
      </trkpt>
      <trkpt lat="45.04375" lon="6.31311">
        <ele>1470</ele>
        <time>2020-10-27T09:16:53+01:00</time>
      </trkpt>
      <trkpt lat="45.04401" lon="6.31419">
        <ele>1482</ele>
        <time>2020-10-27T09:16:58+01:00</time>
      </trkpt>
      <trkpt lat="45.04446" lon="6.31558">
        <ele>1497</ele>
        <time>2020-10-27T09:17:03+01:00</time>
      </trkpt>
      <trkpt lat="45.04473" lon="6.31564">
        <ele>1494</ele>
        <time>2020-10-27T09:17:08+01:00</time>
      </trkpt>
      <trkpt lat="45.04492" lon="6.31627">
        <ele>1500</ele>
        <time>2020-10-27T09:17:13+01:00</time>
      </trkpt>
      <trkpt lat="45.04522" lon="6.31702">
        <ele>1505</ele>
        <time>2020-10-27T09:17:18+01:00</time>
      </trkpt>
      <trkpt lat="45.04516" lon="6.31749">
        <ele>1513</ele>
        <time>2020-10-27T09:17:23+01:00</time>
      </trkpt>
      <trkpt lat="45.04549" lon="6.3183">
        <ele>1522</ele>
        <time>2020-10-27T09:17:28+01:00</time>
      </trkpt>
      <trkpt lat="45.0453" lon="6.31942">
        <ele>1536</ele>
        <time>2020-10-27T09:17:33+01:00</time>
      </trkpt>
      <trkpt lat="45.04517" lon="6.31994">
        <ele>1544</ele>
        <time>2020-10-27T09:17:38+01:00</time>
      </trkpt>
      <trkpt lat="45.04504" lon="6.32112">
        <ele>1561</ele>
        <time>2020-10-27T09:17:43+01:00</time>
      </trkpt>
      <trkpt lat="45.04457" lon="6.32236">
        <ele>1571</ele>
        <time>2020-10-27T09:17:48+01:00</time>
      </trkpt>
      <trkpt lat="45.04463" lon="6.32305">
        <ele>1575</ele>
        <time>2020-10-27T09:17:53+01:00</time>
      </trkpt>
      <trkpt lat="45.04384" lon="6.3232">
        <ele>1600</ele>
        <time>2020-10-27T09:17:58+01:00</time>
      </trkpt>
      <trkpt lat="45.04302" lon="6.32343">
        <ele>1624</ele>
        <time>2020-10-27T09:18:03+01:00</time>
      </trkpt>
      <trkpt lat="45.04266" lon="6.32315">
        <ele>1638</ele>
        <time>2020-10-27T09:18:08+01:00</time>
      </trkpt>
      <trkpt lat="45.04202" lon="6.32315">
        <ele>1661</ele>
        <time>2020-10-27T09:18:13+01:00</time>
      </trkpt>
      <trkpt lat="45.04201" lon="6.32258">
        <ele>1683</ele>
        <time>2020-10-27T09:18:18+01:00</time>
      </trkpt>
      <trkpt lat="45.04161" lon="6.32275">
        <ele>1692</ele>
        <time>2020-10-27T09:18:23+01:00</time>
      </trkpt>
      <trkpt lat="45.04102" lon="6.32352">
        <ele>1715</ele>
        <time>2020-10-27T09:18:28+01:00</time>
      </trkpt>
      <trkpt lat="45.04058" lon="6.32371">
        <ele>1734</ele>
        <time>2020-10-27T09:18:33+01:00</time>
      </trkpt>
      <trkpt lat="45.0404" lon="6.32399">
        <ele>1739</ele>
        <time>2020-10-27T09:18:38+01:00</time>
      </trkpt>
      <trkpt lat="45.04113" lon="6.3244">
        <ele>1729</ele>
        <time>2020-10-27T09:18:43+01:00</time>
      </trkpt>
      <trkpt lat="45.04113" lon="6.32496">
        <ele>1723</ele>
        <time>2020-10-27T09:18:48+01:00</time>
      </trkpt>
      <trkpt lat="45.0407" lon="6.32562">
        <ele>1715</ele>
        <time>2020-10-27T09:18:53+01:00</time>
      </trkpt>
      <trkpt lat="45.04063" lon="6.32633">
        <ele>1710</ele>
        <time>2020-10-27T09:18:58+01:00</time>
      </trkpt>
      <trkpt lat="45.04138" lon="6.32712">
        <ele>1697</ele>
        <time>2020-10-27T09:19:03+01:00</time>
      </trkpt>
      <trkpt lat="45.0416" lon="6.32809">
        <ele>1684</ele>
        <time>2020-10-27T09:19:08+01:00</time>
      </trkpt>
      <trkpt lat="45.04175" lon="6.32996">
        <ele>1659</ele>
        <time>2020-10-27T09:19:13+01:00</time>
      </trkpt>
      <trkpt lat="45.04131" lon="6.33045">
        <ele>1658</ele>
        <time>2020-10-27T09:19:18+01:00</time>
      </trkpt>
      <trkpt lat="45.04141" lon="6.3309">
        <ele>1643</ele>
        <time>2020-10-27T09:19:23+01:00</time>
      </trkpt>
      <trkpt lat="45.04135" lon="6.33174">
        <ele>1632</ele>
        <time>2020-10-27T09:19:28+01:00</time>
      </trkpt>
      <trkpt lat="45.04155" lon="6.33363">
        <ele>1611</ele>
        <time>2020-10-27T09:19:33+01:00</time>
      </trkpt>
      <trkpt lat="45.04134" lon="6.33451">
        <ele>1619</ele>
        <time>2020-10-27T09:19:38+01:00</time>
      </trkpt>
      <trkpt lat="45.04129" lon="6.33536">
        <ele>1621</ele>
        <time>2020-10-27T09:19:43+01:00</time>
      </trkpt>
      <trkpt lat="45.04055" lon="6.33631">
        <ele>1636</ele>
        <time>2020-10-27T09:19:48+01:00</time>
      </trkpt>
      <trkpt lat="45.03996" lon="6.3368">
        <ele>1658</ele>
        <time>2020-10-27T09:19:53+01:00</time>
      </trkpt>
      <trkpt lat="45.0399" lon="6.33781">
        <ele>1645</ele>
        <time>2020-10-27T09:19:58+01:00</time>
      </trkpt>
      <trkpt lat="45.03902" lon="6.34071">
        <ele>1649</ele>
        <time>2020-10-27T09:20:03+01:00</time>
      </trkpt>
      <trkpt lat="45.03908" lon="6.34118">
        <ele>1645</ele>
        <time>2020-10-27T09:20:08+01:00</time>
      </trkpt>
      <trkpt lat="45.03881" lon="6.34176">
        <ele>1652</ele>
        <time>2020-10-27T09:20:13+01:00</time>
      </trkpt>
      <trkpt lat="45.03865" lon="6.34251">
        <ele>1645</ele>
        <time>2020-10-27T09:20:18+01:00</time>
      </trkpt>
      <trkpt lat="45.03828" lon="6.34332">
        <ele>1647</ele>
        <time>2020-10-27T09:20:23+01:00</time>
      </trkpt>
      <trkpt lat="45.03815" lon="6.34468">
        <ele>1646</ele>
        <time>2020-10-27T09:20:28+01:00</time>
      </trkpt>
      <trkpt lat="45.03826" lon="6.34513">
        <ele>1643</ele>
        <time>2020-10-27T09:20:33+01:00</time>
      </trkpt>
      <trkpt lat="45.03788" lon="6.34663">
        <ele>1643</ele>
        <time>2020-10-27T09:20:38+01:00</time>
      </trkpt>
      <trkpt lat="45.03797" lon="6.34697">
        <ele>1641</ele>
        <time>2020-10-27T09:20:43+01:00</time>
      </trkpt>
      <trkpt lat="45.0379" lon="6.34738">
        <ele>1641</ele>
        <time>2020-10-27T09:20:48+01:00</time>
      </trkpt>
      <trkpt lat="45.03787" lon="6.34802">
        <ele>1643</ele>
        <time>2020-10-27T09:20:53+01:00</time>
      </trkpt>
      <trkpt lat="45.03762" lon="6.34824">
        <ele>1647</ele>
        <time>2020-10-27T09:20:58+01:00</time>
      </trkpt>
      <trkpt lat="45.037" lon="6.34835">
        <ele>1659</ele>
        <time>2020-10-27T09:21:03+01:00</time>
      </trkpt>
      <trkpt lat="45.03652" lon="6.3495">
        <ele>1664</ele>
        <time>2020-10-27T09:21:08+01:00</time>
      </trkpt>
      <trkpt lat="45.03627" lon="6.35053">
        <ele>1660</ele>
        <time>2020-10-27T09:21:13+01:00</time>
      </trkpt>
      <trkpt lat="45.03565" lon="6.35105">
        <ele>1659</ele>
        <time>2020-10-27T09:21:18+01:00</time>
      </trkpt>
      <trkpt lat="45.03561" lon="6.35141">
        <ele>1659</ele>
        <time>2020-10-27T09:21:23+01:00</time>
      </trkpt>
      <trkpt lat="45.035" lon="6.35227">
        <ele>1659</ele>
        <time>2020-10-27T09:21:28+01:00</time>
      </trkpt>
      <trkpt lat="45.03451" lon="6.3533">
        <ele>1660</ele>
        <time>2020-10-27T09:21:33+01:00</time>
      </trkpt>
      <trkpt lat="45.03412" lon="6.35433">
        <ele>1660</ele>
        <time>2020-10-27T09:21:38+01:00</time>
      </trkpt>
      <trkpt lat="45.03321" lon="6.35528">
        <ele>1660</ele>
        <time>2020-10-27T09:21:43+01:00</time>
      </trkpt>
      <trkpt lat="45.03262" lon="6.3562">
        <ele>1660</ele>
        <time>2020-10-27T09:21:48+01:00</time>
      </trkpt>
      <trkpt lat="45.03215" lon="6.35753">
        <ele>1661</ele>
        <time>2020-10-27T09:21:53+01:00</time>
      </trkpt>
      <trkpt lat="45.03194" lon="6.35822">
        <ele>1660</ele>
        <time>2020-10-27T09:21:58+01:00</time>
      </trkpt>
      <trkpt lat="45.03238" lon="6.35862">
        <ele>1662</ele>
        <time>2020-10-27T09:22:03+01:00</time>
      </trkpt>
      <trkpt lat="45.03219" lon="6.3591">
        <ele>1662</ele>
        <time>2020-10-27T09:22:08+01:00</time>
      </trkpt>
      <trkpt lat="45.03209" lon="6.35993">
        <ele>1663</ele>
        <time>2020-10-27T09:22:13+01:00</time>
      </trkpt>
      <trkpt lat="45.03138" lon="6.36171">
        <ele>1670</ele>
        <time>2020-10-27T09:22:18+01:00</time>
      </trkpt>
      <trkpt lat="45.03068" lon="6.36328">
        <ele>1670</ele>
        <time>2020-10-27T09:22:23+01:00</time>
      </trkpt>
      <trkpt lat="45.02965" lon="6.36442">
        <ele>1672</ele>
        <time>2020-10-27T09:22:28+01:00</time>
      </trkpt>
      <trkpt lat="45.0294" lon="6.36502">
        <ele>1686</ele>
        <time>2020-10-27T09:22:33+01:00</time>
      </trkpt>
      <trkpt lat="45.02813" lon="6.36607">
        <ele>1678</ele>
        <time>2020-10-27T09:22:38+01:00</time>
      </trkpt>
      <trkpt lat="45.02684" lon="6.36682">
        <ele>1687</ele>
        <time>2020-10-27T09:22:43+01:00</time>
      </trkpt>
      <trkpt lat="45.02575" lon="6.36695">
        <ele>1693</ele>
        <time>2020-10-27T09:22:48+01:00</time>
      </trkpt>
      <trkpt lat="45.0242" lon="6.36824">
        <ele>1705</ele>
        <time>2020-10-27T09:22:53+01:00</time>
      </trkpt>
      <trkpt lat="45.02316" lon="6.36918">
        <ele>1706</ele>
        <time>2020-10-27T09:22:58+01:00</time>
      </trkpt>
      <trkpt lat="45.02244" lon="6.37002">
        <ele>1712</ele>
        <time>2020-10-27T09:23:03+01:00</time>
      </trkpt>
      <trkpt lat="45.02175" lon="6.37017">
        <ele>1710</ele>
        <time>2020-10-27T09:23:08+01:00</time>
      </trkpt>
      <trkpt lat="45.02114" lon="6.37105">
        <ele>1721</ele>
        <time>2020-10-27T09:23:13+01:00</time>
      </trkpt>
      <trkpt lat="45.0207" lon="6.37109">
        <ele>1716</ele>
        <time>2020-10-27T09:23:18+01:00</time>
      </trkpt>
      <trkpt lat="45.0202" lon="6.3715">
        <ele>1717</ele>
        <time>2020-10-27T09:23:23+01:00</time>
      </trkpt>
      <trkpt lat="45.01967" lon="6.37146">
        <ele>1718</ele>
        <time>2020-10-27T09:23:28+01:00</time>
      </trkpt>
      <trkpt lat="45.01713" lon="6.37199">
        <ele>1729</ele>
        <time>2020-10-27T09:23:33+01:00</time>
      </trkpt>
      <trkpt lat="45.01682" lon="6.37216">
        <ele>1735</ele>
        <time>2020-10-27T09:23:38+01:00</time>
      </trkpt>
      <trkpt lat="45.01629" lon="6.3715">
        <ele>1738</ele>
        <time>2020-10-27T09:23:43+01:00</time>
      </trkpt>
      <trkpt lat="45.01525" lon="6.37109">
        <ele>1761</ele>
        <time>2020-10-27T09:23:48+01:00</time>
      </trkpt>
      <trkpt lat="45.01451" lon="6.37219">
        <ele>1779</ele>
        <time>2020-10-27T09:23:53+01:00</time>
      </trkpt>
      <trkpt lat="45.01404" lon="6.37332">
        <ele>1784</ele>
        <time>2020-10-27T09:23:58+01:00</time>
      </trkpt>
      <trkpt lat="45.0136" lon="6.37425">
        <ele>1791</ele>
        <time>2020-10-27T09:24:03+01:00</time>
      </trkpt>
      <trkpt lat="45.01328" lon="6.37431">
        <ele>1810</ele>
        <time>2020-10-27T09:24:08+01:00</time>
      </trkpt>
      <trkpt lat="45.01311" lon="6.37382">
        <ele>1817</ele>
        <time>2020-10-27T09:24:13+01:00</time>
      </trkpt>
      <trkpt lat="45.0128" lon="6.37452">
        <ele>1841</ele>
        <time>2020-10-27T09:24:18+01:00</time>
      </trkpt>
      <trkpt lat="45.01269" lon="6.37502">
        <ele>1861</ele>
        <time>2020-10-27T09:24:23+01:00</time>
      </trkpt>
      <trkpt lat="45.0129" lon="6.37519">
        <ele>1867</ele>
        <time>2020-10-27T09:24:28+01:00</time>
      </trkpt>
      <trkpt lat="45.01281" lon="6.37545">
        <ele>1877</ele>
        <time>2020-10-27T09:24:33+01:00</time>
      </trkpt>
      <trkpt lat="45.01307" lon="6.37551">
        <ele>1884</ele>
        <time>2020-10-27T09:24:38+01:00</time>
      </trkpt>
      <trkpt lat="45.01258" lon="6.37594">
        <ele>1896</ele>
        <time>2020-10-27T09:24:43+01:00</time>
      </trkpt>
      <trkpt lat="45.0128" lon="6.37615">
        <ele>1909</ele>
        <time>2020-10-27T09:24:48+01:00</time>
      </trkpt>
      <trkpt lat="45.0117" lon="6.37671">
        <ele>1942</ele>
        <time>2020-10-27T09:24:53+01:00</time>
      </trkpt>
      <trkpt lat="45.01137" lon="6.37656">
        <ele>1948</ele>
        <time>2020-10-27T09:24:58+01:00</time>
      </trkpt>
      <trkpt lat="45.01134" lon="6.37701">
        <ele>1960</ele>
        <time>2020-10-27T09:25:03+01:00</time>
      </trkpt>
      <trkpt lat="45.01105" lon="6.37686">
        <ele>1965</ele>
        <time>2020-10-27T09:25:08+01:00</time>
      </trkpt>
      <trkpt lat="45.01095" lon="6.37759">
        <ele>1991</ele>
        <time>2020-10-27T09:25:13+01:00</time>
      </trkpt>
      <trkpt lat="45.01004" lon="6.37791">
        <ele>2007</ele>
        <time>2020-10-27T09:25:18+01:00</time>
      </trkpt>
      <trkpt lat="45.00916" lon="6.37815">
        <ele>2020</ele>
        <time>2020-10-27T09:25:23+01:00</time>
      </trkpt>
      <trkpt lat="45.00737" lon="6.37946">
        <ele>2047</ele>
        <time>2020-10-27T09:25:28+01:00</time>
      </trkpt>
      <trkpt lat="45.00649" lon="6.38004">
        <ele>2059</ele>
        <time>2020-10-27T09:25:33+01:00</time>
      </trkpt>
      <trkpt lat="45.00585" lon="6.38042">
        <ele>2060</ele>
        <time>2020-10-27T09:25:38+01:00</time>
      </trkpt>
      <trkpt lat="45.00482" lon="6.38178">
        <ele>2059</ele>
        <time>2020-10-27T09:25:43+01:00</time>
      </trkpt>
      <trkpt lat="45.00356" lon="6.38236">
        <ele>2063</ele>
        <time>2020-10-27T09:25:48+01:00</time>
      </trkpt>
      <trkpt lat="45.00165" lon="6.38358">
        <ele>2087</ele>
        <time>2020-10-27T09:25:53+01:00</time>
      </trkpt>
      <trkpt lat="45.00004" lon="6.38469">
        <ele>2087</ele>
        <time>2020-10-27T09:25:58+01:00</time>
      </trkpt>
      <trkpt lat="44.99882" lon="6.38572">
        <ele>2084</ele>
        <time>2020-10-27T09:26:03+01:00</time>
      </trkpt>
      <trkpt lat="44.99743" lon="6.38678">
        <ele>2094</ele>
        <time>2020-10-27T09:26:08+01:00</time>
      </trkpt>
      <trkpt lat="44.9957" lon="6.38817">
        <ele>2126</ele>
        <time>2020-10-27T09:26:13+01:00</time>
      </trkpt>
      <trkpt lat="44.99417" lon="6.38856">
        <ele>2136</ele>
        <time>2020-10-27T09:26:18+01:00</time>
      </trkpt>
      <trkpt lat="44.99362" lon="6.38899">
        <ele>2145</ele>
        <time>2020-10-27T09:26:23+01:00</time>
      </trkpt>
      <trkpt lat="44.99306" lon="6.38912">
        <ele>2143</ele>
        <time>2020-10-27T09:26:28+01:00</time>
      </trkpt>
      <trkpt lat="44.99228" lon="6.39015">
        <ele>2156</ele>
        <time>2020-10-27T09:26:33+01:00</time>
      </trkpt>
      <trkpt lat="44.99148" lon="6.39077">
        <ele>2163</ele>
        <time>2020-10-27T09:26:38+01:00</time>
      </trkpt>
      <trkpt lat="44.9909" lon="6.39152">
        <ele>2170</ele>
        <time>2020-10-27T09:26:43+01:00</time>
      </trkpt>
      <trkpt lat="44.98881" lon="6.39381">
        <ele>2186</ele>
        <time>2020-10-27T09:26:48+01:00</time>
      </trkpt>
      <trkpt lat="44.98817" lon="6.39439">
        <ele>2190</ele>
        <time>2020-10-27T09:26:53+01:00</time>
      </trkpt>
      <trkpt lat="44.98761" lon="6.39519">
        <ele>2193</ele>
        <time>2020-10-27T09:26:58+01:00</time>
      </trkpt>
      <trkpt lat="44.98665" lon="6.39615">
        <ele>2199</ele>
        <time>2020-10-27T09:27:03+01:00</time>
      </trkpt>
      <trkpt lat="44.9858" lon="6.39746">
        <ele>2212</ele>
        <time>2020-10-27T09:27:08+01:00</time>
      </trkpt>
      <trkpt lat="44.98517" lon="6.39819">
        <ele>2217</ele>
        <time>2020-10-27T09:27:13+01:00</time>
      </trkpt>
      <trkpt lat="44.98451" lon="6.39926">
        <ele>2223</ele>
        <time>2020-10-27T09:27:18+01:00</time>
      </trkpt>
      <trkpt lat="44.98388" lon="6.40064">
        <ele>2232</ele>
        <time>2020-10-27T09:27:23+01:00</time>
      </trkpt>
      <trkpt lat="44.98301" lon="6.4018">
        <ele>2236</ele>
        <time>2020-10-27T09:27:28+01:00</time>
      </trkpt>
      <trkpt lat="44.98228" lon="6.40285">
        <ele>2245</ele>
        <time>2020-10-27T09:27:33+01:00</time>
      </trkpt>
      <trkpt lat="44.98136" lon="6.4036">
        <ele>2248</ele>
        <time>2020-10-27T09:27:38+01:00</time>
      </trkpt>
      <trkpt lat="44.98026" lon="6.40495">
        <ele>2260</ele>
        <time>2020-10-27T09:27:43+01:00</time>
      </trkpt>
      <trkpt lat="44.97837" lon="6.406">
        <ele>2302</ele>
        <time>2020-10-27T09:27:48+01:00</time>
      </trkpt>
      <trkpt lat="44.97799" lon="6.40652">
        <ele>2317</ele>
        <time>2020-10-27T09:27:53+01:00</time>
      </trkpt>
      <trkpt lat="44.97765" lon="6.40705">
        <ele>2328</ele>
        <time>2020-10-27T09:27:58+01:00</time>
      </trkpt>
      <trkpt lat="44.9778" lon="6.4075">
        <ele>2337</ele>
        <time>2020-10-27T09:28:03+01:00</time>
      </trkpt>
      <trkpt lat="44.97767" lon="6.40793">
        <ele>2343</ele>
        <time>2020-10-27T09:28:08+01:00</time>
      </trkpt>
      <trkpt lat="44.97796" lon="6.40967">
        <ele>2355</ele>
        <time>2020-10-27T09:28:13+01:00</time>
      </trkpt>
      <trkpt lat="44.97788" lon="6.41036">
        <ele>2352</ele>
        <time>2020-10-27T09:28:18+01:00</time>
      </trkpt>
      <trkpt lat="44.97814" lon="6.41081">
        <ele>2352</ele>
        <time>2020-10-27T09:28:23+01:00</time>
      </trkpt>
      <trkpt lat="44.97825" lon="6.41141">
        <ele>2350</ele>
        <time>2020-10-27T09:28:28+01:00</time>
      </trkpt>
      <trkpt lat="44.97846" lon="6.41171">
        <ele>2351</ele>
        <time>2020-10-27T09:28:33+01:00</time>
      </trkpt>
      <trkpt lat="44.9794" lon="6.41501">
        <ele>2332</ele>
        <time>2020-10-27T09:28:38+01:00</time>
      </trkpt>
      <trkpt lat="44.97937" lon="6.41542">
        <ele>2325</ele>
        <time>2020-10-27T09:28:43+01:00</time>
      </trkpt>
      <trkpt lat="44.97985" lon="6.4169">
        <ele>2302</ele>
        <time>2020-10-27T09:28:48+01:00</time>
      </trkpt>
      <trkpt lat="44.98005" lon="6.41821">
        <ele>2283</ele>
        <time>2020-10-27T09:28:53+01:00</time>
      </trkpt>
      <trkpt lat="44.98052" lon="6.41905">
        <ele>2272</ele>
        <time>2020-10-27T09:28:58+01:00</time>
      </trkpt>
      <trkpt lat="44.98079" lon="6.42012">
        <ele>2261</ele>
        <time>2020-10-27T09:29:03+01:00</time>
      </trkpt>
      <trkpt lat="44.98127" lon="6.421">
        <ele>2253</ele>
        <time>2020-10-27T09:29:08+01:00</time>
      </trkpt>
      <trkpt lat="44.98186" lon="6.42134">
        <ele>2254</ele>
        <time>2020-10-27T09:29:13+01:00</time>
      </trkpt>
      <trkpt lat="44.98196" lon="6.42173">
        <ele>2251</ele>
        <time>2020-10-27T09:29:18+01:00</time>
      </trkpt>
      <trkpt lat="44.98222" lon="6.4219">
        <ele>2253</ele>
        <time>2020-10-27T09:29:23+01:00</time>
      </trkpt>
      <trkpt lat="44.98218" lon="6.42235">
        <ele>2250</ele>
        <time>2020-10-27T09:29:28+01:00</time>
      </trkpt>
      <trkpt lat="44.98198" lon="6.4225">
        <ele>2250</ele>
        <time>2020-10-27T09:29:33+01:00</time>
      </trkpt>
      <trkpt lat="44.98224" lon="6.42317">
        <ele>2245</ele>
        <time>2020-10-27T09:29:38+01:00</time>
      </trkpt>
      <trkpt lat="44.98239" lon="6.42422">
        <ele>2235</ele>
        <time>2020-10-27T09:29:43+01:00</time>
      </trkpt>
      <trkpt lat="44.98249" lon="6.42589">
        <ele>2226</ele>
        <time>2020-10-27T09:29:48+01:00</time>
      </trkpt>
      <trkpt lat="44.98213" lon="6.42767">
        <ele>2219</ele>
        <time>2020-10-27T09:29:53+01:00</time>
      </trkpt>
      <trkpt lat="44.98154" lon="6.4298">
        <ele>2197</ele>
        <time>2020-10-27T09:29:58+01:00</time>
      </trkpt>
      <trkpt lat="44.98122" lon="6.43205">
        <ele>2173</ele>
        <time>2020-10-27T09:30:03+01:00</time>
      </trkpt>
      <trkpt lat="44.98073" lon="6.43471">
        <ele>2163</ele>
        <time>2020-10-27T09:30:08+01:00</time>
      </trkpt>
      <trkpt lat="44.98079" lon="6.43546">
        <ele>2163</ele>
        <time>2020-10-27T09:30:13+01:00</time>
      </trkpt>
      <trkpt lat="44.98069" lon="6.43583">
        <ele>2160</ele>
        <time>2020-10-27T09:30:18+01:00</time>
      </trkpt>
      <trkpt lat="44.9807" lon="6.43765">
        <ele>2154</ele>
        <time>2020-10-27T09:30:23+01:00</time>
      </trkpt>
      <trkpt lat="44.98032" lon="6.43877">
        <ele>2150</ele>
        <time>2020-10-27T09:30:28+01:00</time>
      </trkpt>
      <trkpt lat="44.97981" lon="6.44003">
        <ele>2134</ele>
        <time>2020-10-27T09:30:33+01:00</time>
      </trkpt>
      <trkpt lat="44.97916" lon="6.44244">
        <ele>2081</ele>
        <time>2020-10-27T09:30:38+01:00</time>
      </trkpt>
      <trkpt lat="44.97899" lon="6.44227">
        <ele>2069</ele>
        <time>2020-10-27T09:30:43+01:00</time>
      </trkpt>
      <trkpt lat="44.97875" lon="6.44306">
        <ele>2052</ele>
        <time>2020-10-27T09:30:48+01:00</time>
      </trkpt>
      <trkpt lat="44.97811" lon="6.44411">
        <ele>2007</ele>
        <time>2020-10-27T09:30:53+01:00</time>
      </trkpt>
      <trkpt lat="44.97741" lon="6.44617">
        <ele>1957</ele>
        <time>2020-10-27T09:30:58+01:00</time>
      </trkpt>
      <trkpt lat="44.97656" lon="6.44804">
        <ele>1909</ele>
        <time>2020-10-27T09:31:03+01:00</time>
      </trkpt>
      <trkpt lat="44.97618" lon="6.44821">
        <ele>1903</ele>
        <time>2020-10-27T09:31:08+01:00</time>
      </trkpt>
      <trkpt lat="44.97594" lon="6.44978">
        <ele>1894</ele>
        <time>2020-10-27T09:31:13+01:00</time>
      </trkpt>
      <trkpt lat="44.97547" lon="6.45181">
        <ele>1870</ele>
        <time>2020-10-27T09:31:18+01:00</time>
      </trkpt>
      <trkpt lat="44.97554" lon="6.45336">
        <ele>1844</ele>
        <time>2020-10-27T09:31:23+01:00</time>
      </trkpt>
      <trkpt lat="44.97579" lon="6.4542">
        <ele>1828</ele>
        <time>2020-10-27T09:31:28+01:00</time>
      </trkpt>
      <trkpt lat="44.97635" lon="6.45583">
        <ele>1793</ele>
        <time>2020-10-27T09:31:33+01:00</time>
      </trkpt>
      <trkpt lat="44.9768" lon="6.45726">
        <ele>1768</ele>
        <time>2020-10-27T09:31:38+01:00</time>
      </trkpt>
      <trkpt lat="44.97667" lon="6.45845">
        <ele>1754</ele>
        <time>2020-10-27T09:31:43+01:00</time>
      </trkpt>
      <trkpt lat="44.97683" lon="6.45894">
        <ele>1745</ele>
        <time>2020-10-27T09:31:48+01:00</time>
      </trkpt>
      <trkpt lat="44.97682" lon="6.45956">
        <ele>1738</ele>
        <time>2020-10-27T09:31:53+01:00</time>
      </trkpt>
      <trkpt lat="44.97715" lon="6.46096">
        <ele>1719</ele>
        <time>2020-10-27T09:31:58+01:00</time>
      </trkpt>
      <trkpt lat="44.97741" lon="6.46141">
        <ele>1713</ele>
        <time>2020-10-27T09:32:03+01:00</time>
      </trkpt>
      <trkpt lat="44.97784" lon="6.46265">
        <ele>1700</ele>
        <time>2020-10-27T09:32:08+01:00</time>
      </trkpt>
      <trkpt lat="44.97873" lon="6.46323">
        <ele>1685</ele>
        <time>2020-10-27T09:32:13+01:00</time>
      </trkpt>
      <trkpt lat="44.97872" lon="6.46362">
        <ele>1690</ele>
        <time>2020-10-27T09:32:18+01:00</time>
      </trkpt>
      <trkpt lat="44.97899" lon="6.46368">
        <ele>1683</ele>
        <time>2020-10-27T09:32:23+01:00</time>
      </trkpt>
      <trkpt lat="44.97923" lon="6.46445">
        <ele>1679</ele>
        <time>2020-10-27T09:32:28+01:00</time>
      </trkpt>
      <trkpt lat="44.97981" lon="6.4652">
        <ele>1669</ele>
        <time>2020-10-27T09:32:33+01:00</time>
      </trkpt>
      <trkpt lat="44.98019" lon="6.46621">
        <ele>1661</ele>
        <time>2020-10-27T09:32:38+01:00</time>
      </trkpt>
      <trkpt lat="44.98072" lon="6.46677">
        <ele>1642</ele>
        <time>2020-10-27T09:32:43+01:00</time>
      </trkpt>
      <trkpt lat="44.98122" lon="6.46767">
        <ele>1628</ele>
        <time>2020-10-27T09:32:48+01:00</time>
      </trkpt>
      <trkpt lat="44.9812" lon="6.46832">
        <ele>1635</ele>
        <time>2020-10-27T09:32:53+01:00</time>
      </trkpt>
      <trkpt lat="44.98171" lon="6.46789">
        <ele>1618</ele>
        <time>2020-10-27T09:32:58+01:00</time>
      </trkpt>
      <trkpt lat="44.98172" lon="6.46849">
        <ele>1616</ele>
        <time>2020-10-27T09:33:03+01:00</time>
      </trkpt>
      <trkpt lat="44.98246" lon="6.46913">
        <ele>1600</ele>
        <time>2020-10-27T09:33:08+01:00</time>
      </trkpt>
      <trkpt lat="44.98268" lon="6.46962">
        <ele>1595</ele>
        <time>2020-10-27T09:33:13+01:00</time>
      </trkpt>
      <trkpt lat="44.98353" lon="6.47031">
        <ele>1579</ele>
        <time>2020-10-27T09:33:18+01:00</time>
      </trkpt>
      <trkpt lat="44.98301" lon="6.47083">
        <ele>1587</ele>
        <time>2020-10-27T09:33:23+01:00</time>
      </trkpt>
      <trkpt lat="44.98324" lon="6.47108">
        <ele>1583</ele>
        <time>2020-10-27T09:33:28+01:00</time>
      </trkpt>
      <trkpt lat="44.98348" lon="6.47078">
        <ele>1578</ele>
        <time>2020-10-27T09:33:33+01:00</time>
      </trkpt>
      <trkpt lat="44.98345" lon="6.47126">
        <ele>1578</ele>
        <time>2020-10-27T09:33:38+01:00</time>
      </trkpt>
      <trkpt lat="44.98383" lon="6.47162">
        <ele>1563</ele>
        <time>2020-10-27T09:33:43+01:00</time>
      </trkpt>
      <trkpt lat="44.98418" lon="6.47261">
        <ele>1560</ele>
        <time>2020-10-27T09:33:48+01:00</time>
      </trkpt>
      <trkpt lat="44.98456" lon="6.47428">
        <ele>1554</ele>
        <time>2020-10-27T09:33:53+01:00</time>
      </trkpt>
      <trkpt lat="44.98497" lon="6.4757">
        <ele>1540</ele>
        <time>2020-10-27T09:33:58+01:00</time>
      </trkpt>
      <trkpt lat="44.98544" lon="6.47698">
        <ele>1536</ele>
        <time>2020-10-27T09:34:03+01:00</time>
      </trkpt>
      <trkpt lat="44.98562" lon="6.47819">
        <ele>1531</ele>
        <time>2020-10-27T09:34:08+01:00</time>
      </trkpt>
      <trkpt lat="44.98606" lon="6.47915">
        <ele>1528</ele>
        <time>2020-10-27T09:34:13+01:00</time>
      </trkpt>
      <trkpt lat="44.98664" lon="6.48061">
        <ele>1519</ele>
        <time>2020-10-27T09:34:18+01:00</time>
      </trkpt>
      <trkpt lat="44.98723" lon="6.48087">
        <ele>1517</ele>
        <time>2020-10-27T09:34:23+01:00</time>
      </trkpt>
      <trkpt lat="44.98732" lon="6.48179">
        <ele>1516</ele>
        <time>2020-10-27T09:34:28+01:00</time>
      </trkpt>
      <trkpt lat="44.98624" lon="6.48286">
        <ele>1511</ele>
        <time>2020-10-27T09:34:33+01:00</time>
      </trkpt>
      <trkpt lat="44.98579" lon="6.4828">
        <ele>1511</ele>
        <time>2020-10-27T09:34:38+01:00</time>
      </trkpt>
      <trkpt lat="44.98483" lon="6.48344">
        <ele>1510</ele>
        <time>2020-10-27T09:34:43+01:00</time>
      </trkpt>
      <trkpt lat="44.98389" lon="6.48387">
        <ele>1510</ele>
        <time>2020-10-27T09:34:48+01:00</time>
      </trkpt>
      <trkpt lat="44.98385" lon="6.48419">
        <ele>1509</ele>
        <time>2020-10-27T09:34:53+01:00</time>
      </trkpt>
      <trkpt lat="44.98347" lon="6.48456">
        <ele>1509</ele>
        <time>2020-10-27T09:34:58+01:00</time>
      </trkpt>
      <trkpt lat="44.98324" lon="6.48514">
        <ele>1508</ele>
        <time>2020-10-27T09:35:03+01:00</time>
      </trkpt>
      <trkpt lat="44.98284" lon="6.48567">
        <ele>1509</ele>
        <time>2020-10-27T09:35:08+01:00</time>
      </trkpt>
      <trkpt lat="44.98277" lon="6.48662">
        <ele>1502</ele>
        <time>2020-10-27T09:35:13+01:00</time>
      </trkpt>
      <trkpt lat="44.98201" lon="6.48825">
        <ele>1499</ele>
        <time>2020-10-27T09:35:18+01:00</time>
      </trkpt>
      <trkpt lat="44.98183" lon="6.48917">
        <ele>1498</ele>
        <time>2020-10-27T09:35:23+01:00</time>
      </trkpt>
      <trkpt lat="44.98057" lon="6.49033">
        <ele>1498</ele>
        <time>2020-10-27T09:35:28+01:00</time>
      </trkpt>
      <trkpt lat="44.98039" lon="6.49138">
        <ele>1495</ele>
        <time>2020-10-27T09:35:33+01:00</time>
      </trkpt>
      <trkpt lat="44.97979" lon="6.49269">
        <ele>1491</ele>
        <time>2020-10-27T09:35:38+01:00</time>
      </trkpt>
      <trkpt lat="44.97923" lon="6.49406">
        <ele>1488</ele>
        <time>2020-10-27T09:35:43+01:00</time>
      </trkpt>
      <trkpt lat="44.97841" lon="6.49632">
        <ele>1481</ele>
        <time>2020-10-27T09:35:48+01:00</time>
      </trkpt>
      <trkpt lat="44.97759" lon="6.49638">
        <ele>1481</ele>
        <time>2020-10-27T09:35:53+01:00</time>
      </trkpt>
      <trkpt lat="44.97689" lon="6.49685">
        <ele>1479</ele>
        <time>2020-10-27T09:35:58+01:00</time>
      </trkpt>
      <trkpt lat="44.97651" lon="6.49784">
        <ele>1476</ele>
        <time>2020-10-27T09:36:03+01:00</time>
      </trkpt>
      <trkpt lat="44.97609" lon="6.49855">
        <ele>1475</ele>
        <time>2020-10-27T09:36:08+01:00</time>
      </trkpt>
      <trkpt lat="44.97576" lon="6.50009">
        <ele>1479</ele>
        <time>2020-10-27T09:36:13+01:00</time>
      </trkpt>
      <trkpt lat="44.97486" lon="6.50076">
        <ele>1478</ele>
        <time>2020-10-27T09:36:18+01:00</time>
      </trkpt>
      <trkpt lat="44.97453" lon="6.50233">
        <ele>1473</ele>
        <time>2020-10-27T09:36:23+01:00</time>
      </trkpt>
      <trkpt lat="44.97445" lon="6.50284">
        <ele>1471</ele>
        <time>2020-10-27T09:36:28+01:00</time>
      </trkpt>
      <trkpt lat="44.97425" lon="6.50351">
        <ele>1470</ele>
        <time>2020-10-27T09:36:33+01:00</time>
      </trkpt>
      <trkpt lat="44.97372" lon="6.50524">
        <ele>1469</ele>
        <time>2020-10-27T09:36:38+01:00</time>
      </trkpt>
      <trkpt lat="44.97351" lon="6.50645">
        <ele>1467</ele>
        <time>2020-10-27T09:36:43+01:00</time>
      </trkpt>
      <trkpt lat="44.9733" lon="6.50765">
        <ele>1464</ele>
        <time>2020-10-27T09:36:48+01:00</time>
      </trkpt>
      <trkpt lat="44.97399" lon="6.50827">
        <ele>1469</ele>
        <time>2020-10-27T09:36:53+01:00</time>
      </trkpt>
      <trkpt lat="44.97399" lon="6.50827">
        <ele>1469</ele>
        <time>2020-10-27T09:36:58+01:00</time>
      </trkpt>
    </trkseg>
  </trk>
</gpx>